Weather Roundup
Issued by NWS Springfield, MO

Home | Current Version | Previous Version | Text Only | Print | Product List | Glossary On
Versions: 1 2 3 4 5 6 7 8 9 10 11 12 13 14 15 16 17 18 19 20 21 22 23 24 25 26 27 28 29 30 31 32 33 34 35 36 37 38 39 40 41 42 43 44 45 46 47 48 49 50
000
NZUS99 KSGF 031710
HRRSGF

HOURLY WEATHER
NATIONAL WEATHER SERVICE SPRINGFIELD MO
1200 PM CDT MON AUG 03 2015

......SGF CWA......

CITY           SKY/WX    TMP DP  RH WIND       PRES   REMARKS
SPRINGFIELD    SUNNY     89  64  43 W7        29.98F HX  90
JOPLIN         MOSUNNY   92  66  42 W9        29.97S HX  94
WEST PLAINS    SUNNY     88  67  49 W7        30.00S HX  91
ROLLA          MOSUNNY   85  69  58 W9        29.94F HAZE
OSAGE BEACH    SUNNY     86  66  51 W8        29.96S
BRANSON        PTSUNNY   90  66  45 SW3       30.01S HX  92

......SURROUNDING SGF CWA......

CITY           SKY/WX    TMP DP  RH WIND       PRES   REMARKS
CHANUTE        MOSUNNY   88  67  49 S8        29.96R HX  91
PARSONS        SUNNY     90  67  46 SW7       29.96S HX  93
COFFEYVILLE    MOSUNNY   90  65  43 SW12      29.94F HX  92
EMPORIA        SUNNY     89  67  47 W5        29.95S HX  92
GROVE OK       MOSUNNY   91  63  38 SW8       29.98S HX  92
ROGERS AR      MOSUNNY   89  65  44 SW10      30.02R HX  91
SILOAM SPRINGS CLOUDY    88  63  42 W8        30.00S
HARRISON AR    SUNNY     89  66  46 W5        30.01R HX  91
NEAR YELLVILLE SUNNY     90  66  45 SE3       29.96S HX  92

......KANSAS AND MISSOURI......

CITY           SKY/WX    TMP DP  RH WIND       PRES   REMARKS
KANSAS CTY INT PTSUNNY   86  72  62 SW6       29.95F HX  92
DOWNTOWN KC    SUNNY     88  71  57 SW8       29.92F HX  94
COLUMBIA       PTSUNNY   85  67  54 NW7       29.95S
SEDALIA        MOSUNNY   84  66  54 CALM      29.96F
ST JOSEPH      PTSUNNY   76  69  79 N9        29.99R
ST LOUIS       MOSUNNY   89  64  43 NW7       29.91F HX  90
SPIRIT OF STL  MOSUNNY   88  69  53 VRB6      29.90S HX  92
KIRKSVILLE     MOSUNNY   80  59  48 N7        29.97S
WICHITA        PTSUNNY   87  71  58 SW10      29.94F HX  93
TOPEKA         SUNNY     88  70  55 W6        29.93F HX  93
OLATHE         SUNNY     86  69  56 VRB6      29.94F HX  90

......TENNESSEE......

CITY           SKY/WX    TMP DP  RH WIND       PRES   REMARKS
MEMPHIS        MOSUNNY   95  67  39 N5        29.96S HX  99
NASHVILLE      MOSUNNY   92  67  44 W8        29.96S HX  95

......ARKANSAS.......

CITY           SKY/WX    TMP DP  RH WIND       PRES   REMARKS
FAYETTEVILLE   PTSUNNY   87  66  49 W6        30.01R
FT SMITH       PTSUNNY   91  66  43 VRB3      29.96S HX  93
LITTLE ROCK    MOSUNNY   95  65  37 VRB7      29.95F HX  97

......OKLAHOMA.......

CITY           SKY/WX    TMP DP  RH WIND       PRES   REMARKS
TULSA          PTSUNNY   90  66  45 W8        29.94S HX  92
PONCA CITY     PTSUNNY   86  68  54 SW7       29.94F
MCALESTER      MOSUNNY   91  63  39 S9        29.97S HX  92
OKLAHOMA CITY  CLOUDY    80  67  64 S6        29.98R

......IOWA............

CITY           SKY/WX    TMP DP  RH WIND       PRES   REMARKS
DES MOINES     MOSUNNY   80  53  39 CALM      29.97F
QUAD CITIES    SUNNY     80  53  39 N7        29.93R

......ILLINOIS........

CITY           SKY/WX    TMP DP  RH WIND       PRES   REMARKS
QUINCY         CLOUDY    79  64  60 W8        29.94R
CHICAGO        MOSUNNY   79  54  41 NW12      29.86S



USA.gov is the U.S. government's official web portal to all federal, state and local government web resources and services.